World > North America > United States > New York

Peakville, New York Regional Weather

Lat: 41.98N, Lon: 75.1W
Wx Zone: NYZ057Web Search

Helpful Tip: Abbreviated, 7 Day, 14 Day Forecasts. There is a weather forecast for every taste.

Feedback
Peakville Weather Map
UTC Time: 3/3/2021, 18:38
Your Time:

Peakville, NY Regional Weather

Expires:202103031900;;419025
ASUS41 KBGM 031810
RWRBGM

REGIONAL WEATHER ROUNDUP
NATIONAL WEATHER SERVICE BINGHAMTON NY
100 PM EST WED MAR 03 2021

Note: "fair" indicates few or no clouds below 12,000 feet with no
significant weather and/or obstructions to visibility.

* = Station(s) that does not report precipitation, such as rain, 
snow, etc, also no thunder or fog.


NYZ009-015>018-022>025-036-037-044>046-055>057-062-031900
...Central New York...
  
CITY           SKY/WX    TMP DP  RH WIND       PRES   REMARKS
Binghamton     CLOUDY    38  22  52 W12       29.79F WCI  30          
Cortland       CLOUDY    37  27  65 W6        29.82S WCI  33          
Dansville      CLOUDY    44  26  49 W12       29.84F                  
Elmira         MOSUNNY   45  21  38 W13       29.82F                  
Endicott       CLOUDY    41  23  48 W6        29.82F                  
Ithaca         CLOUDY    38  26  62 W12       29.83F WCI  30          
Hamilton       CLOUDY    37  23  56 W6        29.80F WCI  33          
Monticello     MOSUNNY   39  23  52 W15G24    29.79F WCI  31          
Norwich        CLOUDY    39  23  52 NW5       29.80F                  
Oneonta        SUNNY     37  21  52 W12       29.77F WCI  30          
Penn Yan       SUNNY     43  27  53 W9G20     29.82F                  
Rome           PTSUNNY   38  25  59 NW12      29.83F WCI  30          
Seneca Falls   CLOUDY    41  28  60 W12       29.85F                  
Sidney         CLOUDY    39  23  52 W8        29.81F WCI  34          
Skaneateles    CLOUDY    37  27  65 W7        29.82S WCI  32          
Syracuse       CLOUDY    41  25  53 NW9       29.84F                  
$$
 

SKY/WX - Weather  TMP - Temperature  DP - Dew Point  RH - Relative Humidity
WIND - Wind Direction/Speed PRES - Barometric Pressure VSB - Visibility
WCI - Wind Chill Index E13G22 Wind - East Wind 13 mph/Gusts of 22 mph